Weather History for St. James, MN

Change the Weather History Date:

Saturday, August 30, 2014

  Actual Average Record
Temperature  
Mean Temperature 70 °F -  
Max Temperature 78 °F 82 °F 95 °F (2012)
Min Temperature 62 °F 57 °F 35 °F (2002)
Cooling Degree Days 5    
Growing Degree Days 20 (Base 50)    
Moisture  
Dew Point 63 °F    
Average Humidity 85    
Maximum Humidity 100    
Minimum Humidity 57    
Precipitation  
Precipitation 0.01 in - - ()
Sea Level Pressure  
Sea Level Pressure 29.87 in    
Wind  
Wind Speed 6 mph (WNW)    
Max Wind Speed 13 mph    
Max Gust Speed 16 mph    
Visibility 7 miles    
Events Rain    
Averages and records for this station are not official NWS values.
T = Trace of Precipitation, MM = Missing Value Source: NWS Daily Summary

Daily Weather History Graph

Daily Weather History Graph

Search for Another Location

Airport:

Trip Planner

Search our weather history database for the weather conditions in past years. The results will help you decide how hot, cold, wet, or windy it might be!

Date:

Astronomy

Aug. 30, 2014 Rise Set
Actual Time 6:39 AM CDT 7:57 PM CDT
Civil Twilight 6:09 AM CDT 8:27 PM CDT
Nautical Twilight 5:33 AM CDT 9:03 PM CDT
Astronomical Twilight 4:55 AM CDT 9:41 PM CDT
Moon 11:38 AM CDT (8/30) 10:20 PM CDT (8/30)
Length of Visible Light 14h 18m
Length of Day
13h 18m
Waxing Crescent, 23% of the Moon is Illuminated
Aug 30
Waxing Crescent
Sep 2
First Quarter
Sep 8
Full
Sep 15
Last Quarter
Sep 24
New

Hourly Weather History & Observations

Time (CDT) Temp. Dew Point Humidity Pressure Visibility Wind Dir Wind Speed Gust Speed Precip Events Conditions
12:15 AM 66.2 °F 64.4 °F 94% 29.80 in 10.0 mi West 4.6 mph - N/A   Mostly Cloudy
12:34 AM 66.2 °F 64.4 °F 94% 29.80 in 10.0 mi West 5.8 mph - N/A   Scattered Clouds
12:55 AM 66.2 °F 64.4 °F 94% 29.80 in 10.0 mi WNW 4.6 mph - N/A Rain Light Rain
1:15 AM 66.2 °F 64.4 °F 94% 29.80 in 10.0 mi Calm Calm - N/A   Overcast
1:35 AM 66.2 °F 64.4 °F 94% 29.80 in 10.0 mi West 3.5 mph - N/A Rain Rain
1:55 AM 66.2 °F 64.4 °F 94% 29.80 in 10.0 mi West 4.6 mph - N/A   Mostly Cloudy
2:15 AM 66.2 °F 64.4 °F 94% 29.80 in 10.0 mi West 3.5 mph - N/A   Scattered Clouds
2:35 AM 66.2 °F 64.4 °F 94% 29.80 in 10.0 mi WNW 5.8 mph - N/A   Mostly Cloudy
2:54 AM 66.2 °F 64.4 °F 94% 29.81 in 7.0 mi WNW 4.6 mph - N/A   Overcast
3:15 AM 66.2 °F 64.4 °F 94% 29.81 in 5.0 mi WNW 3.5 mph - N/A   Overcast
3:35 AM 66.2 °F 64.4 °F 94% 29.81 in 4.0 mi WNW 5.8 mph - N/A   Overcast
3:54 AM 66.2 °F 66.2 °F 100% 29.81 in 4.0 mi West 5.8 mph - N/A   Overcast
4:15 AM 66.2 °F 66.2 °F 100% 29.82 in 4.0 mi WNW 5.8 mph - N/A   Overcast
4:35 AM 66.2 °F 66.2 °F 100% 29.82 in 5.0 mi WNW 5.8 mph - 0.01 in   Overcast
4:55 AM 66.2 °F 64.4 °F 94% 29.83 in 5.0 mi WNW 6.9 mph - 0.01 in   Overcast
5:14 AM 66.2 °F 64.4 °F 94% 29.83 in 5.0 mi NW 6.9 mph - N/A   Overcast
5:35 AM 66.2 °F 64.4 °F 94% 29.83 in 7.0 mi WNW 5.8 mph - N/A   Overcast
5:54 AM 66.2 °F 64.4 °F 94% 29.84 in 7.0 mi WNW 6.9 mph - N/A   Overcast
6:15 AM 66.2 °F 64.4 °F 94% 29.85 in 7.0 mi WNW 10.4 mph - N/A   Overcast
6:35 AM 66.2 °F 64.4 °F 94% 29.85 in 7.0 mi WNW 9.2 mph - N/A   Overcast
6:55 AM 66.2 °F 64.4 °F 94% 29.86 in 5.0 mi WNW 6.9 mph - N/A Rain Light Rain
7:15 AM 66.2 °F 64.4 °F 94% 29.86 in 5.0 mi WNW 6.9 mph - N/A   Overcast
7:35 AM 66.2 °F 64.4 °F 94% 29.87 in 4.0 mi WNW 12.7 mph 16.1 mph N/A   Overcast
7:54 AM 66.2 °F 64.4 °F 94% 29.87 in 1.2 mi WNW 11.5 mph - N/A   Overcast
8:15 AM 66.2 °F 64.4 °F 94% 29.88 in 1.0 mi WNW 9.2 mph 16.1 mph N/A   Overcast
8:35 AM 66.2 °F 64.4 °F 94% 29.88 in 4.0 mi WNW 11.5 mph 16.1 mph N/A   Overcast
8:54 AM 66.2 °F 64.4 °F 94% 29.88 in 5.0 mi WNW 9.2 mph - N/A   Overcast
9:15 AM 66.2 °F 64.4 °F 94% 29.89 in 7.0 mi WNW 9.2 mph - N/A   Overcast
9:55 AM 66.2 °F 62.6 °F 88% 29.89 in 7.0 mi WNW 10.4 mph - N/A   Overcast
10:15 AM 66.2 °F 62.6 °F 88% 29.90 in 10.0 mi WNW 9.2 mph - N/A   Overcast
10:35 AM 66.2 °F 62.6 °F 88% 29.91 in 10.0 mi WNW 11.5 mph - N/A   Overcast
10:54 AM 66.2 °F 62.6 °F 88% 29.91 in 10.0 mi West 10.4 mph - N/A   Overcast
11:15 AM 66.2 °F 62.6 °F 88% 29.91 in 5.0 mi West 8.1 mph - N/A   Overcast
11:35 AM 68.0 °F 62.6 °F 83% 29.91 in 10.0 mi WNW 9.2 mph - N/A   Overcast
11:54 AM 69.8 °F 62.6 °F 78% 29.91 in 10.0 mi West 8.1 mph - N/A   Overcast
12:15 PM 69.8 °F 62.6 °F 78% 29.91 in 10.0 mi West 8.1 mph - N/A   Overcast
12:35 PM 71.6 °F 64.4 °F 78% 29.91 in 10.0 mi West 6.9 mph - N/A   Overcast
12:55 PM 71.6 °F 62.6 °F 73% 29.90 in 10.0 mi WNW 8.1 mph - N/A   Overcast
1:15 PM 73.4 °F 62.6 °F 69% 29.90 in 10.0 mi West 10.4 mph - N/A   Mostly Cloudy
1:35 PM 73.4 °F 62.6 °F 69% 29.90 in 10.0 mi West 9.2 mph - N/A   Mostly Cloudy
1:55 PM 73.4 °F 62.6 °F 69% 29.90 in 10.0 mi WNW 8.1 mph - N/A   Mostly Cloudy
2:14 PM 73.4 °F 62.6 °F 69% 29.91 in 10.0 mi WNW 5.8 mph - N/A   Mostly Cloudy
2:54 PM 75.2 °F 62.6 °F 65% 29.90 in 10.0 mi WSW 5.8 mph - N/A   Mostly Cloudy
3:14 PM 73.4 °F 62.6 °F 69% 29.90 in 10.0 mi WNW 4.6 mph - N/A   Mostly Cloudy
3:35 PM 75.2 °F 64.4 °F 69% 29.89 in 10.0 mi West 6.9 mph - N/A   Overcast
3:55 PM 77.0 °F 62.6 °F 61% 29.88 in 10.0 mi WNW 4.6 mph - N/A   Scattered Clouds
4:15 PM 78.8 °F 64.4 °F 61% 29.89 in 10.0 mi West 9.2 mph - N/A   Mostly Cloudy
4:34 PM 75.2 °F 62.6 °F 65% 29.88 in 10.0 mi NW 5.8 mph - N/A   Scattered Clouds
4:55 PM 77.0 °F 62.6 °F 61% 29.88 in 10.0 mi WNW 5.8 mph - N/A   Clear
5:15 PM 78.8 °F 62.6 °F 57% 29.88 in 10.0 mi NW 4.6 mph - N/A   Clear
5:35 PM 78.8 °F 62.6 °F 57% 29.87 in 10.0 mi WNW 4.6 mph - N/A   Clear
5:55 PM 77.0 °F 62.6 °F 61% 29.87 in 10.0 mi Calm Calm - N/A   Clear
6:15 PM 73.4 °F 62.6 °F 69% 29.87 in 10.0 mi Calm Calm - N/A   Clear
6:34 PM 73.4 °F 62.6 °F 69% 29.87 in 10.0 mi Calm Calm - N/A   Clear
6:55 PM 73.4 °F 62.6 °F 69% 29.87 in 10.0 mi Calm Calm - N/A   Clear
7:15 PM 77.0 °F 64.4 °F 65% 29.87 in 10.0 mi Calm Calm - N/A   Clear
7:34 PM 73.4 °F 66.2 °F 78% 29.87 in 10.0 mi Calm Calm - N/A   Clear
7:55 PM 68.0 °F 64.4 °F 88% 29.87 in 1.8 mi Calm Calm - N/A   Clear
8:35 PM 64.4 °F 62.6 °F 94% 29.88 in 1.5 mi Calm Calm - N/A   Clear
8:55 PM 64.4 °F 62.6 °F 94% 29.88 in 2.5 mi Calm Calm - N/A   Clear
9:14 PM 64.4 °F 62.6 °F 94% 29.88 in 3.0 mi Calm Calm - N/A   Clear
9:35 PM 64.4 °F 62.6 °F 94% 29.88 in 1.8 mi ENE 3.5 mph - N/A   Clear
9:55 PM 62.6 °F 60.8 °F 94% 29.88 in 1.8 mi East 3.5 mph - N/A   Mostly Cloudy
10:15 PM 62.6 °F 60.8 °F 94% 29.88 in 1.8 mi Calm Calm - N/A   Clear
10:34 PM 62.6 °F 60.8 °F 94% 29.88 in 1.8 mi East 3.5 mph - N/A   Clear
10:55 PM 64.4 °F 62.6 °F 94% 29.88 in 1.2 mi East 5.8 mph - N/A   Clear
11:15 PM 62.6 °F 60.8 °F 94% 29.88 in 1.0 mi East 4.6 mph - N/A   Clear
11:34 PM 62.6 °F 60.8 °F 94% 29.88 in 1.0 mi ESE 4.6 mph - N/A   Clear
11:55 PM 62.6 °F 60.8 °F 94% 29.87 in 1.0 mi ESE 3.5 mph - N/A   Clear